Hebron, NE

5:23 PM CST on November 23, 2017 (GMT -0600)
Hebron Municipal

Weather History for KHJH - April, 2014

Change the Weather History Date:

Sunday, April 13, 2014

  Actual Average Record
Temperature  
Mean Temperature 48 °F -  
Max Temperature 61 °F 64 °F 87 °F (2006)
Min Temperature 32 °F 39 °F 12 °F (1950)
Degree Days  
Heating Degree Days 18    
Moisture  
Dew Point 40 °F    
Average Humidity 82    
Maximum Humidity 95    
Minimum Humidity 54    
Precipitation  
Precipitation 0.16 in - - ()
Sea Level Pressure  
Sea Level Pressure 29.71 in    
Wind  
Wind Speed 16 mph (NNE)    
Max Wind Speed 30 mph    
Max Gust Speed 43 mph    
Visibility 7 miles    
Events Rain , Snow , Thunderstorm    
Averages and records for this station are not official NWS values.
T = Trace of Precipitation, MM = Missing Value Source: NWS Daily Summary

Daily Weather History Graph

Daily Weather History Graph

Search for Another Location

Airport or City:

Trip Planner

Search our weather history database for the weather conditions in past years. The results will help you decide how hot, cold, wet, or windy it might be!

Date:

Astronomy

Apr. 13, 2014 Rise Set
Actual Time 6:55 AM CDT 8:07 PM CDT
Civil Twilight 6:27 AM CDT 8:35 PM CDT
Nautical Twilight 5:53 AM CDT 9:08 PM CDT
Astronomical Twilight 5:18 AM CDT 9:43 PM CDT
Moon 6:46 PM CDT (4/13) 5:54 AM CDT (4/13)
Length of Visible Light 14h 07m
Length of Day
13h 11m
Waxing Gibbous, 97% of the Moon is Illuminated
Apr 13
Waxing Gibbous
Apr 15
Full
Apr 22
Last Quarter
Apr 29
New
May 6
First Quarter

Hourly Weather History & Observations

Time (CDT) Temp. Windchill Dew Point Humidity Pressure Visibility Wind Dir Wind Speed Gust Speed Precip Events Conditions
12:15 AM 63.1 °F - 46.4 °F 54% 29.59 in 10.0 mi NNE 8.1 mph - N/A   Clear
12:35 AM 62.1 °F - 46.4 °F 56% 29.60 in 10.0 mi NE 5.8 mph - N/A   Clear
12:55 AM 61.3 °F - 46.8 °F 59% 29.60 in 10.0 mi NNE 9.2 mph - N/A   Scattered Clouds
1:15 AM 61.2 °F - 47.3 °F 60% 29.60 in 10.0 mi NNE 10.4 mph - N/A   Scattered Clouds
1:35 AM 60.8 °F - 47.8 °F 62% 29.59 in 10.0 mi NNE 11.5 mph - N/A   Scattered Clouds
1:55 AM 60.1 °F - 48.2 °F 65% 29.59 in 10.0 mi NNE 9.2 mph - N/A   Clear
2:15 AM 59.2 °F - 48.2 °F 67% 29.59 in 10.0 mi NNE 6.9 mph - N/A   Clear
2:35 AM 58.6 °F - 48.2 °F 68% 29.59 in 10.0 mi NE 8.1 mph - N/A   Clear
2:55 AM 58.3 °F - 49.1 °F 71% 29.58 in 10.0 mi NE 11.5 mph - N/A   Scattered Clouds
3:15 AM 58.1 °F - 49.3 °F 72% 29.57 in 10.0 mi NE 15.0 mph 18.4 mph N/A   Scattered Clouds
3:35 AM 58.5 °F - 50.0 °F 73% 29.58 in 10.0 mi NE 13.8 mph 20.7 mph N/A   Mostly Cloudy
3:55 AM 58.5 °F - 50.0 °F 73% 29.58 in 10.0 mi NNE 17.3 mph 21.9 mph N/A   Overcast
4:15 AM 57.9 °F - 49.5 °F 73% 29.57 in 10.0 mi NE 13.8 mph 20.7 mph N/A   Mostly Cloudy
4:35 AM 57.4 °F - 49.3 °F 74% 29.57 in 10.0 mi NNE 15.0 mph 20.7 mph N/A   Mostly Cloudy
4:55 AM 57.4 °F - 49.3 °F 74% 29.58 in 10.0 mi NNE 15.0 mph 19.6 mph N/A   Overcast
5:15 AM 57.2 °F - 49.1 °F 74% 29.57 in 10.0 mi NNE 18.4 mph 23.0 mph N/A   Overcast
5:30 AM 57.4 °F - 49.1 °F 74% 29.58 in 10.0 mi NNE 18.4 mph 28.8 mph N/A   Overcast
5:55 AM 57.2 °F - 47.7 °F 70% 29.58 in 10.0 mi NNE 18.4 mph 29.9 mph N/A   Overcast
6:15 AM 56.5 °F - 46.4 °F 69% 29.57 in 10.0 mi NNE 23.0 mph 28.8 mph N/A Thunderstorm Thunderstorm
6:35 AM 53.8 °F - 47.3 °F 79% 29.57 in 7.0 mi NNE 21.9 mph 34.5 mph N/A Rain , Thunderstorm Light Thunderstorms and Rain
7:15 AM 50.9 °F - 47.3 °F 87% 29.61 in 5.0 mi North 15.0 mph 28.8 mph 0.01 in Rain Light Rain
7:35 AM 50.0 °F - 47.3 °F 90% 29.59 in 5.0 mi NNE 21.9 mph 29.9 mph 0.01 in Rain , Thunderstorm Light Thunderstorms and Rain
7:55 AM 49.3 °F - 46.6 °F 90% 29.57 in 4.0 mi NNE 19.6 mph 31.1 mph 0.02 in Rain Light Rain
8:15 AM 49.1 °F - 45.7 °F 88% 29.59 in 5.0 mi NE 21.9 mph 39.1 mph N/A Thunderstorm Overcast
8:35 AM 49.3 °F - 45.5 °F 87% 29.64 in 7.0 mi NNE 15.0 mph 28.8 mph N/A   Overcast
8:55 AM 48.9 °F - 45.5 °F 88% 29.63 in 5.0 mi NNE 19.6 mph 29.9 mph N/A   Drizzle
9:15 AM 48.7 °F - 45.7 °F 89% 29.61 in 4.0 mi NNE 19.6 mph 32.2 mph N/A Rain , Thunderstorm Light Thunderstorms and Rain
9:35 AM 48.7 °F - 45.9 °F 90% 29.60 in 4.0 mi NE 20.7 mph 29.9 mph N/A   Light Drizzle
9:55 AM 49.1 °F - 46.0 °F 89% 29.60 in 4.0 mi NE 23.0 mph 31.1 mph N/A Thunderstorm Unknown
10:15 AM 49.1 °F - 45.7 °F 88% 29.59 in 4.0 mi NE 23.0 mph 36.8 mph N/A Thunderstorm Overcast
10:35 AM 48.6 °F - 45.1 °F 88% 29.62 in 7.0 mi NE 23.0 mph 34.5 mph N/A   Overcast
10:55 AM 48.2 °F - 45.1 °F 89% 29.65 in 4.0 mi NNE 20.7 mph 31.1 mph N/A Rain Light Rain
11:15 AM 47.5 °F - 44.2 °F 89% 29.66 in 4.0 mi NNE 19.6 mph 36.8 mph N/A Rain Rain
11:35 AM 47.3 °F - 44.6 °F 90% 29.66 in 3.0 mi NNE 20.7 mph 31.1 mph 0.01 in Rain , Thunderstorm Rain
11:55 AM 46.8 °F - 43.7 °F 89% 29.66 in 2.5 mi NNE 23.0 mph 35.7 mph 0.03 in Rain Rain
12:15 PM 46.4 °F 39.0 °F 43.7 °F 90% 29.68 in 1.2 mi NNE 19.6 mph 26.5 mph 0.08 in Rain , Thunderstorm Light Thunderstorms and Rain
12:35 PM 45.0 °F 36.9 °F 42.8 °F 92% 29.68 in 3.0 mi North 20.7 mph 27.6 mph 0.11 in Rain , Thunderstorm Light Thunderstorms and Rain
1:15 PM 43.5 °F 33.3 °F 40.8 °F 90% 29.69 in 5.0 mi North 29.9 mph 36.8 mph N/A Thunderstorm Unknown
1:35 PM 42.8 °F 34.0 °F 39.4 °F 88% 29.69 in 10.0 mi North 20.7 mph 34.5 mph N/A Thunderstorm Overcast
1:55 PM 42.3 °F 33.6 °F 38.5 °F 86% 29.71 in 10.0 mi North 19.6 mph 34.5 mph N/A   Overcast
2:15 PM 40.1 °F 28.8 °F 36.1 °F 86% 29.70 in 10.0 mi North 28.8 mph 39.1 mph N/A   Overcast
2:35 PM 39.0 °F 27.8 °F 35.4 °F 87% 29.71 in 10.0 mi North 26.5 mph 39.1 mph N/A   Light Drizzle
2:55 PM 37.4 °F 25.4 °F 33.4 °F 86% 29.71 in 10.0 mi North 27.6 mph 42.6 mph N/A   Overcast
3:15 PM 36.9 °F 24.2 °F 32.4 °F 84% 29.71 in 10.0 mi North 29.9 mph 42.6 mph N/A   Overcast
3:35 PM 36.5 °F 25.4 °F 32.0 °F 84% 29.74 in 10.0 mi North 21.9 mph 35.7 mph N/A   Overcast
3:55 PM 36.0 °F 23.5 °F 32.0 °F 86% 29.74 in 10.0 mi North 27.6 mph 36.8 mph N/A   Overcast
4:35 PM 34.0 °F 20.3 °F 30.9 °F 89% 29.77 in 7.0 mi North 29.9 mph 40.3 mph N/A Rain Light Rain
4:55 PM 33.8 °F 20.5 °F 31.1 °F 90% 29.77 in 4.0 mi North 27.6 mph 39.1 mph N/A Snow Light Snow
5:15 PM 33.6 °F 21.1 °F 31.3 °F 91% 29.77 in 1.8 mi North 24.2 mph 40.3 mph N/A Snow Light Snow
5:35 PM 33.1 °F 20.9 °F 31.1 °F 92% 29.77 in 2.0 mi North 21.9 mph 38.0 mph N/A   Overcast
5:55 PM 33.1 °F 20.6 °F 31.1 °F 92% 29.78 in 2.0 mi North 23.0 mph 38.0 mph N/A Snow Light Snow
6:15 PM 33.1 °F 20.1 °F 31.1 °F 92% 29.80 in 2.5 mi North 25.3 mph 39.1 mph N/A   Overcast
6:35 PM 33.3 °F 20.6 °F 31.1 °F 92% 29.80 in 3.0 mi North 24.2 mph 35.7 mph N/A Snow Light Snow
6:55 PM 33.1 °F 20.3 °F 30.9 °F 92% 29.81 in 2.5 mi North 24.2 mph 33.4 mph N/A Snow Light Snow
7:15 PM 32.9 °F 20.7 °F 31.1 °F 93% 29.83 in 1.0 mi NNW 21.9 mph 31.1 mph N/A Snow Light Snow
7:35 PM 32.7 °F 22.1 °F 31.1 °F 94% 29.85 in 0.8 mi North 16.1 mph 31.1 mph N/A Snow Light Snow
7:55 PM 32.7 °F 21.4 °F 31.1 °F 94% 29.86 in 1.8 mi North 18.4 mph 28.8 mph N/A Snow Light Snow
8:15 PM 32.7 °F 20.7 °F 31.5 °F 95% 29.88 in 2.0 mi North 20.7 mph 28.8 mph N/A Snow Light Snow
8:35 PM 32.9 °F 20.4 °F 31.1 °F 93% 29.89 in 2.0 mi North 23.0 mph 34.5 mph N/A Snow Light Snow
8:55 PM 32.9 °F 20.1 °F 30.9 °F 92% 29.90 in 4.0 mi North 24.2 mph 31.1 mph N/A Snow Light Snow
9:15 PM 33.1 °F 20.6 °F 30.7 °F 91% 29.93 in 7.0 mi North 23.0 mph 33.4 mph N/A Snow Light Snow
9:35 PM 33.6 °F 21.9 °F 30.2 °F 87% 29.94 in 7.0 mi North 20.7 mph 27.6 mph N/A Snow Light Snow
9:55 PM 33.8 °F 23.5 °F 30.0 °F 86% 29.96 in 4.0 mi North 16.1 mph 28.8 mph N/A Snow Light Snow
10:15 PM 34.7 °F 25.1 °F 29.1 °F 80% 29.97 in 10.0 mi North 15.0 mph 23.0 mph N/A   Overcast
10:35 PM 35.1 °F 24.8 °F 28.4 °F 77% 29.97 in 10.0 mi North 17.3 mph 29.9 mph N/A   Overcast
10:55 PM 35.2 °F 22.7 °F 27.7 °F 74% 29.97 in 10.0 mi North 26.5 mph 32.2 mph N/A   Overcast
11:15 PM 35.6 °F 24.2 °F 27.3 °F 72% 29.97 in 10.0 mi North 21.9 mph 31.1 mph N/A   Overcast
11:35 PM 35.4 °F 25.6 °F 27.5 °F 73% 29.97 in 10.0 mi North 16.1 mph 26.5 mph N/A   Overcast
11:55 PM 35.1 °F 25.2 °F 27.5 °F 74% 29.98 in 10.0 mi North 16.1 mph 25.3 mph N/A   Overcast